User: anonymous   Login
Location: Cucq
(50.4773°N, 1.6202°E)
Time: 12:06:34
(UTC+00:00)
Language:

MOZ.5/SAFIR/RUBIN 5/SL-8 - Orbit

View from above orbital plane
View from above orbital plane
View from above satellite
View from above satellite

Ground track
Ground track

The orbit data is extracted from the following two-line orbital elements,

1 28898U 05043G   20296.86151189 +.00000099 +00000-0 +30001-4 0  9991
2 28898 098.0952 061.1411 0018752 313.4198 046.5441 14.60457602421798
Epoch (UTC): 22 October 2020 20:40:34
Eccentricity: 0.0018752
inclination: 98.0952°
perigee height: 678 km
apogee height: 705 km
right ascension of ascending node: 61.1411°
argument of perigee: 313.4198°
revolutions per day: 14.60457602
mean anomaly at epoch: 46.5441°
orbit number at epoch: 42179

The dashed part of the orbit path shows where the satellite is in the earth's shadow,  

DLR